Weather History for LIVE - March, 2013

Change the Weather History Date:

Monday, March 18, 2013

  Actual Average Record
Temperature  
Mean Temperature 28 °F -  
Max Temperature 32 °F - - ()
Min Temperature 24 °F - - ()
Degree Days  
Heating Degree Days 37    
Moisture  
Dew Point 25 °F    
Average Humidity 88    
Maximum Humidity 100    
Minimum Humidity 64    
Precipitation  
Precipitation 0.00 in - - ()
Sea Level Pressure  
Sea Level Pressure 29.28 in    
Wind  
Wind Speed 7 mph ()    
Max Wind Speed 10 mph    
Max Gust Speed 20 mph    
Visibility 0.9 miles    
Events Fog , Snow    
T = Trace of Precipitation, MM = Missing Value Source: Averaged Metar Reports

Daily Weather History Graph

Daily Weather History Graph

Search for Another Location

Airport or City:

Trip Planner

Search our weather history database for the weather conditions in past years. The results will help you decide how hot, cold, wet, or windy it might be!

Date:

Astronomy

Mar. 18, 2013 Rise Set
Actual Time 6:24 AM CET 6:27 PM CET
Civil Twilight 5:54 AM CET 6:58 PM CET
Nautical Twilight 5:19 AM CET 7:33 PM CET
Astronomical Twilight 4:42 AM CET 8:10 PM CET
Moon 9:49 AM CET (3/18) 12:34 AM CET (3/18)
Length of Visible Light 13h 03m
Length of Day
12h 02m
Waxing Crescent, 38% of the Moon is Illuminated
Mar 18
Waxing Crescent
Mar 19
First Quarter
Mar 27
Full
Apr 3
Last Quarter
Apr 10
New

Hourly Weather History & Observations

Time (CET) Temp. Windchill Dew Point Humidity Pressure Visibility Wind Dir Wind Speed Gust Speed Precip Events Conditions
12:55 AM 26.6 °F 18.2 °F 26.6 °F 100% 29.59 in 0.7 mi South 8.1 mph - N/A Snow Light Snow
1:55 AM 26.6 °F 16.8 °F 24.8 °F 93% 29.56 in 0.4 mi South 10.4 mph - N/A Fog , Snow Light Snow
2:55 AM 26.6 °F 16.8 °F 24.8 °F 93% 29.50 in 0.4 mi South 10.4 mph - N/A Fog , Snow Light Snow
3:55 AM 26.6 °F 17.5 °F 24.8 °F 93% 29.44 in 0.2 mi SSE 9.2 mph - N/A Snow Light Snow
4:55 AM 26.6 °F 16.8 °F 24.8 °F 93% 29.42 in 0.2 mi SSE 10.4 mph - N/A Fog , Snow Light Snow
5:55 AM 26.6 °F 17.5 °F 24.8 °F 93% 29.39 in 0.2 mi SSE 9.2 mph - N/A Snow Light Snow
6:55 AM 24.8 °F 15.3 °F 23.0 °F 93% 29.36 in 0.4 mi SSE 9.2 mph - N/A Snow Light Snow
7:55 AM 24.8 °F 16.1 °F 23.0 °F 93% 29.36 in 0.4 mi SE 8.1 mph - N/A Fog , Snow Light Snow
9:55 AM 28.4 °F 19.1 °F 26.6 °F 93% 29.30 in 0.4 mi SE 10.4 mph - N/A Fog , Snow Light Snow
10:55 AM 26.6 °F 18.2 °F 24.8 °F 93% 29.27 in 0.4 mi SSE 8.1 mph - N/A Fog , Snow Light Snow
11:55 AM 28.4 °F 21.2 °F 24.8 °F 86% 29.24 in 0.3 mi SSE 6.9 mph - N/A Fog , Snow Light Snow
12:55 PM 28.4 °F 22.2 °F 24.8 °F 86% 29.18 in 0.3 mi SW 5.8 mph - N/A Fog , Snow Light Snow
2:55 PM 30.2 °F - 28.4 °F 93% 29.15 in 0.5 mi North 2.3 mph - N/A Fog , Snow Light Snow
3:55 PM 30.2 °F 25.4 °F 28.4 °F 93% 29.15 in 0.5 mi North 4.6 mph - N/A Fog , Snow Light Snow
4:55 PM 32.0 °F 27.5 °F 28.4 °F 87% 29.12 in 0.5 mi North 4.6 mph - N/A Fog , Snow Light Snow
5:55 PM 32.0 °F 26.4 °F 26.6 °F 80% 29.12 in 0.6 mi NE 5.8 mph - N/A Fog , Snow Light Snow
6:55 PM 30.2 °F 25.4 °F 26.6 °F 86% 29.12 in 0.6 mi North 4.6 mph - N/A Fog , Snow Light Snow
7:55 PM 32.0 °F 27.5 °F 26.6 °F 80% 29.18 in 1.9 mi NNE 4.6 mph - N/A   Mostly Cloudy
8:55 PM 32.0 °F 24.8 °F 24.8 °F 75% 29.18 in 1.9 mi NNE 8.1 mph 19.6 mph N/A   Scattered Clouds
9:55 PM 30.2 °F 24.3 °F 26.6 °F 86% 29.18 in 1.9 mi NE 5.8 mph - N/A   Scattered Clouds
10:55 PM 30.2 °F 25.4 °F 23.0 °F 75% 29.21 in 3.7 mi NNE 4.6 mph - N/A   Scattered Clouds
11:55 PM 28.4 °F - 17.6 °F 64% 29.24 in 3.7 mi NNE 2.3 mph - N/A   Scattered Clouds